Content
SEND FEEDBACK

Daily
Averages
Monthly
Summary
Iran

MASMUDABAD, IRAN


Home > Middle East > Iran
Elevation: 4892 feet     Latitude: 29 31N     Longitude: 052 34E

WEATHER
 
SELECT A DAY
Number of Records: 212,792;   Date Range: 10/21/96 - 10/22/14
 
SHARE

PRINT THIS DATA

[ ← Previous Day ]
WEATHER ALMANAC - FEBRUARY 13, 2013
[ Next Day → ]
[ °C ]   °F
Weather ElementAverageHighLow
Temperature51.2 °F64.4 °F (3:20 pm)39.2 °F (7:00 am)
Dewpoint36.6 °F42.8 °F (12:30 am)28.4 °F (3:55 pm)
Humidity61.8 %100 % (12:30 am)18 % (3:30 pm)
Barometer30.07 in30.15 in (9:00 am)29.90 in (3:30 pm)
Wind Speed4.1 mph13.8 mph (3:20 pm)
Weather ElementAverage
Visibility3.4 mi
Wind DirectionSSE (141.4 °)

Weather ElementTotal
Precipitation---
Heating Degree Days13.2 (Base 65)
Growing Degree Days1.8 (Base 50)
Averaged from 72 records on February 13, 2013
WEATHER CONDITIONS BREAKOUT
WIND DIRECTION BREAKOUT
WEATHER BY HOUR - FEBRUARY 13, 2013
[ °C ]   °F
Local TimeTemperatureDewpointHumidityBarometerVisibilityWind DirectionWind SpeedGust SpeedPrecipitationEventsConditions
12:30 AM42.8 °F42.8 °F100 %30.09 in3.7 miCalmScattered Clouds
12:50 AM42.8 °F42.8 °F100 %30.09 in3.7 miCalmScattered Clouds
1:20 AM42.8 °F42.8 °F100 %30.09 in3.7 miCalmScattered Clouds
1:30 AM42.8 °F42.8 °F100 %30.09 in3.7 miCalmScattered Clouds
2:00 AM41.0 °F39.2 °F93 %30.09 in3.1 miCalmScattered Clouds
2:20 AM41.0 °F39.2 °F93 %30.09 in3.1 miCalmScattered Clouds
2:30 AM41.0 °F39.2 °F93 %30.09 in3.1 miCalmScattered Clouds
3:00 AM44.6 °F42.8 °F93 %30.06 in3.1 miCalmScattered Clouds
3:20 AM44.6 °F42.8 °F93 %30.06 in3.1 miCalmScattered Clouds
3:30 AM45.0 °F42.0 °F86 %30.00 in3.0 miCalmMist
4:00 AM44.6 °F41.0 °F87 %30.06 in3.7 miCalmPartly Cloudy
4:20 AM44.6 °F41.0 °F87 %30.06 in3.1 miENE (60°)4.6 mphPartly Cloudy
4:30 AM44.6 °F41.0 °F87 %30.06 in3.1 miENE (60°)4.6 mphPartly Cloudy
5:00 AM42.8 °F41.0 °F93 %30.06 in3.1 miNNE (30°)4.6 mphPartly Cloudy
5:20 AM42.8 °F41.0 °F93 %30.06 in3.1 miNNE (30°)4.6 mphPartly Cloudy
5:30 AM42.8 °F41.0 °F93 %30.06 in3.1 miNNE (30°)4.6 mphPartly Cloudy
6:00 AM42.8 °F41.0 °F93 %30.09 in3.1 miNNE (30°)4.6 mphPartly Cloudy
6:20 AM42.8 °F41.0 °F93 %30.09 in3.1 miCalmPartly Cloudy
6:30 AM42.8 °F41.0 °F93 %30.09 in3.1 miCalmPartly Cloudy
7:00 AM39.2 °F37.4 °F93 %30.09 in3.1 miCalmPartly Cloudy
7:20 AM39.2 °F37.4 °F93 %30.12 in3.1 miCalmPartly Cloudy
7:30 AM39.2 °F37.4 °F93 %30.12 in3.1 miCalmPartly Cloudy
8:00 AM44.6 °F41.0 °F87 %30.12 in2.5 miCalmPartly Cloudy
8:20 AM46.4 °F42.8 °F87 %30.12 in2.5 miCalmScattered Clouds
8:30 AM46.4 °F42.8 °F87 %30.12 in2.5 miCalmScattered Clouds
9:00 AM50.0 °F42.8 °F76 %30.15 in2.5 miCalmPartly Cloudy
9:20 AM51.8 °F41.0 °F67 %30.15 in1.9 miCalmHaze
9:30 AM51.8 °F41.0 °F67 %30.15 in1.9 miCalmHaze
9:30 AM51.0 °F42.0 °F61 %30.06 in2.0 miCalmHaze
10:00 AM53.6 °F39.2 °F58 %30.15 in1.9 miCalmHaze
10:20 AM53.6 °F39.2 °F58 %30.15 in1.9 miCalmHaze
10:30 AM53.6 °F39.2 °F58 %30.15 in1.9 miCalmHaze
11:00 AM55.4 °F41.0 °F58 %30.12 in1.6 miCalmHaze
11:20 AM57.2 °F41.0 °F55 %30.12 in1.6 miSE (130°)9.2 mphHaze
11:30 AM57.2 °F41.0 °F55 %30.12 in1.6 miSE (130°)9.2 mphHaze
12:00 PM57.2 °F41.0 °F55 %30.09 in1.6 miEast (80°)9.2 mphHaze
12:20 PM57.2 °F41.0 °F55 %30.09 in1.6 miEast (90°)4.6 mphHaze
12:30 PM57.2 °F41.0 °F55 %30.09 in1.6 miEast (90°)4.6 mphHaze
1:00 PM60.8 °F37.4 °F42 %30.06 in1.6 miSouth (190°)4.6 mphHaze
1:20 PM62.6 °F35.6 °F37 %30.06 in1.9 miWSW (250°)4.6 mphHaze
1:30 PM62.6 °F35.6 °F37 %30.06 in1.9 miWSW (250°)4.6 mphHaze
2:00 PM62.6 °F35.6 °F37 %30.04 in3.1 miSSE (150°)4.6 mphHaze
2:30 PM62.6 °F35.6 °F37 %30.04 in3.1 miSSW (200°)11.5 mphHaze
3:00 PM62.6 °F33.8 °F34 %30.04 in6.2 miWest (260°)4.6 mphScattered Clouds
3:20 PM64.4 °F32.0 °F30 %30.04 in6.2 miNNW (330°)13.8 mphScattered Clouds
3:30 PM64.4 °F32.0 °F30 %30.04 in6.2 miNNW (330°)13.8 mphScattered Clouds
3:30 PM64.0 °F31.0 °F18 %29.90 in6.0 miNNW (330°)13.4 mphPartly Cloudy
3:55 PM62.6 °F28.4 °F27 %30.04 in6.2 miWest (260°)11.5 mphScattered Clouds
4:20 PM60.8 °F28.4 °F29 %30.04 in6.2 miWest (270°)11.5 mphScattered Clouds
4:30 PM60.8 °F28.4 °F29 %30.04 in6.2 miWest (270°)11.5 mphScattered Clouds
5:00 PM60.8 °F28.4 °F29 %30.04 in6.2 miWNW (290°)9.2 mphPartly Cloudy
5:20 PM59.0 °F28.4 °F31 %30.04 in6.2 miWSW (240°)9.2 mphPartly Cloudy
5:30 PM59.0 °F28.4 °F31 %30.04 in6.2 miWSW (240°)9.2 mphPartly Cloudy
6:00 PM55.4 °F32.0 °F41 %30.04 in6.2 miWSW (240°)6.9 mphPartly Cloudy
6:20 PM53.6 °F28.4 °F38 %30.04 inWSW (240°)4.6 mphClear
6:30 PM53.6 °F28.4 °F38 %30.04 inWSW (240°)4.6 mphClear
7:00 PM51.8 °F30.2 °F44 %30.04 inWest (260°)4.6 mphClear
7:20 PM53.6 °F30.2 °F41 %30.04 inWest (280°)4.6 mphClear
7:30 PM53.6 °F30.2 °F41 %30.04 inWest (280°)4.6 mphClear
8:00 PM51.8 °F30.2 °F44 %30.06 inWest (270°)6.9 mphClear
8:20 PM51.8 °F30.2 °F44 %30.06 inWest (280°)4.6 mphClear
8:30 PM51.8 °F30.2 °F44 %30.06 inWest (280°)4.6 mphClear
9:00 PM51.8 °F30.2 °F44 %30.06 inWNW (300°)9.2 mphClear
9:20 PM51.8 °F32.0 °F47 %30.06 inWNW (300°)4.6 mphClear
9:30 PM52.0 °F32.0 °F35 %29.96 in7.0 miWNW (300°)4.5 mph
9:30 PM51.8 °F32.0 °F47 %30.06 inWNW (300°)4.6 mphClear
9:55 PM50.0 °F33.8 °F54 %30.06 inWNW (300°)4.6 mphClear
10:20 PM50.0 °F33.8 °F54 %30.06 inWNW (300°)4.6 mphClear
10:30 PM50.0 °F33.8 °F54 %30.06 inWNW (300°)4.6 mphClear
10:55 PM48.2 °F33.8 °F58 %30.06 inWest (270°)4.6 mphClear
11:20 PM48.2 °F33.8 °F58 %30.06 inWest (270°)4.6 mphClear
11:30 PM48.2 °F33.8 °F58 %30.06 inWest (270°)4.6 mphClear
Hourly data recorded from OISS, located miles away from Masmudabad, Iran







STORIES FROM OUR PARTNERS